Regional Weather Roundup
Issued by NWS State College, PA

Home | Current Version | Previous Version | Graphics & Text | Print | Product List | Glossary On
Versions: 1 2 3 4 5 6 7 8 9 10 11 12 13 14 15 16 17 18 19 20 21 22 23 24 25 26 27 28 29 30 31 32 33 34 35 36 37 38 39 40 41 42 43 44 45 46 47 48 49 50
000
ASUS41 KCTP 240703
RWRCTP

REGIONAL WEATHER ROUNDUP
NATIONAL WEATHER SERVICE STATE COLLEGE PA
300 AM EDT TUE MAY 24 2016

Note: "fair" indicates few or no clouds below 12,000 feet with no
significant weather and/or obstructions to visibility.

* = STATION THAT DOES NOT REPORT PRECIPITATION /E.G. RAIN...SNOW...ETC/
    THUNDER OR FOG.

PAZ002>004-007>009-013>016-020>023-029>032-240800-
WESTERN PENNSYLVANIA

CITY           SKY/WX    TMP DP  RH WIND       PRES   REMARKS
ERIE           CLEAR     51  45  79 S3        30.01S
MEADVILLE      CLEAR     51  43  74 CALM      30.02S
FRANKLIN*      CLEAR     52  41  66 CALM      30.04S
NEW CASTLE     FAIR      47  45  93 CALM      30.03R
BEAVER COUNTY  NOT AVBL
BUTLER*        CLEAR    N/A N/A N/A CALM      30.04S
PITTSBURGH INT PTCLDY    54  48  80 W5        30.01F
PITTSBURGH     CLEAR     59  47  64 W3        30.01S
INDIANA*       MOCLDY    52  50  93 CALM      30.04S
LATROBE        MOCLDY    54  54 100 CALM      30.02F
WASHINGTON CO*   N/A     46  45  93 CALM      30.03S VSB 1/2
$$

PAZ004>006-010>012-017>019-024>028-033>037-041-042-045-046-049>053-240800-
CENTRAL PENNSYLVANIA

CITY           SKY/WX    TMP DP  RH WIND       PRES   REMARKS
BRADFORD       CLEAR     44  40  85 CALM      30.02S
DUBOIS         CLEAR     51  43  74 NW3       30.00S
CLEARFIELD     CLEAR     51  47  86 CALM      30.00S
JOHNSTOWN      CLEAR     54  44  69 SW5       30.01S
ALTOONA        CLEAR     54  48  80 SW7       29.99S
STATE COLLEGE  CLEAR     53  49  86 CALM      29.97S
WILLIAMSPORT   PTCLDY    55  49  80 W8        29.92F
SELINSGROVE    CLEAR     51  50  96 CALM      29.93S
FT INDIANTOWN  PTCLDY    56  54  92 VRB1      29.90S
CAPITAL CITY   PTCLDY    57  52  83 VRB3      29.91F
HARRISBURG     PTCLDY    57  54  89 NW13      29.90F
YORK           CLOUDY    57  53  86 W6        29.92S
$$

PAZ038>040-043-044-047-048-054-055-060>062-067>071-240800-
EASTERN PENNSYLVANIA

CITY           SKY/WX    TMP DP  RH WIND       PRES   REMARKS
SCRANTON       CLOUDY    63  44  50 N3        29.90S
MOUNT POCONO   CLOUDY    52  43  71 NW8       29.90S
ALLENTOWN      CLOUDY    58  54  86 W6        29.88S
QUAKERTOWN*    CLOUDY    57  55  94 W3        29.89F
READING        PTCLDY    57  53  86 CALM      29.88S
LANCASTER      PTCLDY    56  53  90 W9        29.90S
COATESVILLE      N/A    N/A N/A N/A MISG        N/A
POTTSTOWN      CLOUDY    57  55  93 S5        29.90F
BLUE BELL      CLOUDY    55  54  94 W3        29.87F
DOYLESTOWN     CLOUDY    56  54  93 CALM      29.87S
WILLOW GROVE   NOT AVBL
NORTH PHILA    MOCLDY    59  56  89 CALM      29.89F
PHILADELPHIA   LGT RAIN  59  54  83 SW14      29.89F
$$



USA.gov is the U.S. government's official web portal to all federal, state and local government web resources and services.